Time,TemperatureF,DewpointF,PressureIn,WindDirection,WindDirectionDegrees,WindSpeedMPH,WindSpeedGustMPH,Humidity,HourlyPrecipIn,Conditions,Clouds,dailyrainin,SoftwareType,DateUTC
2013-02-03 00:04:00,6.2,3.4,30.06,South,190,0.0,0.0,88,0.00,,---,0.00,VWS V14.01,2013-02-03 06:04:00,
2013-02-03 00:13:00,6.3,3.5,30.05,South,190,0.0,1.0,88,0.00,,---,0.00,VWS V14.01,2013-02-03 06:13:00,
2013-02-03 00:18:00,6.4,3.6,30.05,South,190,0.0,2.0,88,0.00,,---,0.00,VWS V14.01,2013-02-03 06:18:00,
2013-02-03 00:23:00,6.5,3.7,30.05,South,190,0.0,1.0,88,0.00,,---,0.00,VWS V14.01,2013-02-03 06:23:00,
2013-02-03 00:28:00,6.4,3.6,30.05,South,190,0.0,1.0,88,0.00,,---,0.00,VWS V14.01,2013-02-03 06:28:00,
2013-02-03 00:33:00,6.4,3.6,30.05,South,190,3.0,3.0,88,0.00,,---,0.00,VWS V14.01,2013-02-03 06:33:00,
2013-02-03 00:38:00,6.4,3.6,30.05,South,190,0.0,2.0,88,0.00,,---,0.00,VWS V14.01,2013-02-03 06:38:00,
2013-02-03 00:43:00,6.4,3.6,30.05,South,190,0.0,1.0,88,0.00,,---,0.00,VWS V14.01,2013-02-03 06:43:00,
2013-02-03 00:48:00,6.3,3.5,30.05,South,190,0.0,1.0,88,0.00,,---,0.00,VWS V14.01,2013-02-03 06:48:00,
2013-02-03 00:53:00,6.3,3.5,30.05,South,190,1.0,1.0,88,0.00,,---,0.00,VWS V14.01,2013-02-03 06:53:00,
2013-02-03 00:59:00,6.2,3.4,30.04,South,190,0.0,0.0,88,0.00,,---,0.00,VWS V14.01,2013-02-03 06:59:00,
2013-02-03 01:04:00,6.1,3.3,30.04,South,190,0.0,0.0,88,0.00,,---,0.00,VWS V14.01,2013-02-03 07:04:00,
2013-02-03 01:09:00,6.0,3.2,30.04,South,190,0.0,0.0,88,0.00,,---,0.00,VWS V14.01,2013-02-03 07:09:00,
2013-02-03 01:14:00,5.9,3.1,30.04,South,190,0.0,0.0,88,0.00,,---,0.00,VWS V14.01,2013-02-03 07:14:00,
2013-02-03 01:19:00,5.7,2.9,30.04,South,190,0.0,0.0,88,0.00,,---,0.00,VWS V14.01,2013-02-03 07:19:00,
2013-02-03 01:24:00,5.6,2.8,30.04,South,190,0.0,0.0,88,0.00,,---,0.00,VWS V14.01,2013-02-03 07:24:00,
2013-02-03 01:29:00,5.4,2.6,30.04,South,190,0.0,0.0,88,0.00,,---,0.00,VWS V14.01,2013-02-03 07:29:00,
2013-02-03 01:34:00,5.2,2.4,30.03,South,190,0.0,0.0,88,0.00,,---,0.00,VWS V14.01,2013-02-03 07:34:00,
2013-02-03 01:39:00,4.9,2.1,30.03,South,190,0.0,0.0,88,0.00,,---,0.00,VWS V14.01,2013-02-03 07:39:00,
2013-02-03 01:44:00,4.8,2.0,30.03,South,190,0.0,0.0,88,0.00,,---,0.00,VWS V14.01,2013-02-03 07:44:00,
2013-02-03 01:49:00,4.7,1.9,30.03,South,190,0.0,0.0,88,0.00,,---,0.00,VWS V14.01,2013-02-03 07:49:00,
2013-02-03 01:54:00,4.7,2.2,30.03,South,190,0.0,0.0,89,0.00,,---,0.00,VWS V14.01,2013-02-03 07:54:00,
2013-02-03 01:59:00,4.7,2.2,30.03,South,190,0.0,0.0,89,0.00,,---,0.00,VWS V14.01,2013-02-03 07:59:00,
2013-02-03 02:04:00,4.8,2.3,30.03,South,190,0.0,0.0,89,0.00,,---,0.00,VWS V14.01,2013-02-03 08:04:00,
2013-02-03 02:09:00,5.0,2.5,30.03,South,190,0.0,0.0,89,0.00,,---,0.00,VWS V14.01,2013-02-03 08:09:00,
2013-02-03 02:14:00,5.1,2.8,30.03,South,190,0.0,0.0,90,0.00,,---,0.00,VWS V14.01,2013-02-03 08:14:00,
2013-02-03 02:19:00,5.3,3.0,30.02,South,190,0.0,0.0,90,0.00,,---,0.00,VWS V14.01,2013-02-03 08:19:00,
2013-02-03 02:24:00,5.4,3.1,30.02,South,190,0.0,0.0,90,0.00,,---,0.00,VWS V14.01,2013-02-03 08:24:00,
2013-02-03 02:29:00,5.6,3.3,30.02,South,190,0.0,1.0,90,0.00,,---,0.00,VWS V14.01,2013-02-03 08:29:00,
2013-02-03 02:34:00,5.7,3.4,30.02,South,190,0.0,1.0,90,0.00,,---,0.00,VWS V14.01,2013-02-03 08:34:00,
2013-02-03 02:39:00,5.8,3.5,30.02,South,190,0.0,0.0,90,0.00,,---,0.00,VWS V14.01,2013-02-03 08:39:00,
2013-02-03 02:44:00,5.9,3.6,30.02,South,190,0.0,0.0,90,0.00,,---,0.00,VWS V14.01,2013-02-03 08:44:00,
2013-02-03 02:49:00,5.9,3.6,30.02,South,190,0.0,0.0,90,0.00,,---,0.00,VWS V14.01,2013-02-03 08:49:00,
2013-02-03 02:54:00,5.9,3.6,30.01,South,190,0.0,1.0,90,0.00,,---,0.00,VWS V14.01,2013-02-03 08:54:00,
2013-02-03 02:59:00,5.9,3.6,30.01,South,190,0.0,0.0,90,0.00,,---,0.00,VWS V14.01,2013-02-03 08:59:00,
2013-02-03 03:04:00,6.0,3.7,30.01,South,190,0.0,0.0,90,0.00,,---,0.00,VWS V14.01,2013-02-03 09:04:00,
2013-02-03 03:09:00,6.0,3.7,30.01,South,190,0.0,0.0,90,0.00,,---,0.00,VWS V14.01,2013-02-03 09:09:00,
2013-02-03 03:14:00,6.0,3.7,30.01,South,190,0.0,0.0,90,0.00,,---,0.00,VWS V14.01,2013-02-03 09:14:00,
2013-02-03 03:19:00,6.0,3.7,30.01,South,190,0.0,0.0,90,0.00,,---,0.00,VWS V14.01,2013-02-03 09:19:00,
2013-02-03 03:24:00,5.9,3.6,30.00,South,190,0.0,0.0,90,0.00,,---,0.00,VWS V14.01,2013-02-03 09:24:00,
2013-02-03 03:29:00,5.8,3.5,30.01,South,190,0.0,0.0,90,0.00,,---,0.00,VWS V14.01,2013-02-03 09:29:00,
2013-02-03 03:34:00,5.9,3.6,30.00,South,190,0.0,0.0,90,0.00,,---,0.00,VWS V14.01,2013-02-03 09:34:00,
2013-02-03 03:39:00,5.9,3.6,29.99,South,190,0.0,0.0,90,0.00,,---,0.00,VWS V14.01,2013-02-03 09:39:00,
2013-02-03 03:44:00,6.0,3.7,29.99,South,190,0.0,0.0,90,0.00,,---,0.00,VWS V14.01,2013-02-03 09:44:00,
2013-02-03 03:49:00,6.0,3.7,29.99,South,190,0.0,0.0,90,0.00,,---,0.00,VWS V14.01,2013-02-03 09:49:00,
2013-02-03 03:54:00,6.2,3.9,29.99,South,190,1.0,1.0,90,0.00,,---,0.00,VWS V14.01,2013-02-03 09:54:00,
2013-02-03 03:59:00,6.3,4.0,29.99,South,190,1.0,1.0,90,0.00,,---,0.00,VWS V14.01,2013-02-03 09:59:00,
2013-02-03 04:04:00,6.4,4.1,29.99,South,190,0.0,1.0,90,0.00,,---,0.00,VWS V14.01,2013-02-03 10:04:00,
2013-02-03 04:09:00,6.5,4.2,29.99,South,190,1.0,2.0,90,0.00,,---,0.00,VWS V14.01,2013-02-03 10:09:00,
2013-02-03 04:14:00,6.6,4.3,29.99,South,190,0.0,0.0,90,0.00,,---,0.00,VWS V14.01,2013-02-03 10:14:00,
2013-02-03 04:19:00,6.7,4.4,30.00,South,190,0.0,0.0,90,0.00,,---,0.00,VWS V14.01,2013-02-03 10:19:00,
2013-02-03 04:24:00,6.8,4.5,30.00,South,190,0.0,0.0,90,0.00,,---,0.00,VWS V14.01,2013-02-03 10:24:00,
2013-02-03 04:29:00,6.9,4.6,30.00,South,190,0.0,1.0,90,0.00,,---,0.00,VWS V14.01,2013-02-03 10:29:00,
2013-02-03 04:34:00,6.9,4.8,30.00,South,190,0.0,0.0,91,0.00,,---,0.00,VWS V14.01,2013-02-03 10:34:00,
2013-02-03 04:39:00,7.1,5.0,30.01,South,190,0.0,0.0,91,0.00,,---,0.00,VWS V14.01,2013-02-03 10:39:00,
2013-02-03 04:44:00,7.2,5.1,30.01,South,190,0.0,2.0,91,0.00,,---,0.00,VWS V14.01,2013-02-03 10:44:00,
2013-02-03 04:49:00,7.3,5.2,30.00,South,190,0.0,0.0,91,0.00,,---,0.00,VWS V14.01,2013-02-03 10:49:00,
2013-02-03 04:54:00,7.4,5.3,30.01,South,190,0.0,0.0,91,0.00,,---,0.00,VWS V14.01,2013-02-03 10:54:00,
2013-02-03 04:59:00,7.6,5.5,30.01,SSW,193,0.0,2.0,91,0.00,,---,0.00,VWS V14.01,2013-02-03 10:59:00,
2013-02-03 05:04:00,7.6,5.5,30.00,SSW,193,0.0,1.0,91,0.00,,---,0.00,VWS V14.01,2013-02-03 11:04:00,
2013-02-03 05:09:00,7.7,5.6,30.01,SSW,197,3.0,3.0,91,0.00,,---,0.00,VWS V14.01,2013-02-03 11:09:00,
2013-02-03 05:14:00,7.8,5.7,30.00,SSW,197,1.0,2.0,91,0.00,,---,0.00,VWS V14.01,2013-02-03 11:14:00,
2013-02-03 05:19:00,7.8,5.7,30.00,SSW,198,0.0,1.0,91,0.00,,---,0.00,VWS V14.01,2013-02-03 11:19:00,
2013-02-03 05:24:00,7.9,5.8,30.00,SSW,198,0.0,0.0,91,0.00,,---,0.00,VWS V14.01,2013-02-03 11:24:00,
2013-02-03 05:29:00,8.0,5.9,30.00,SSW,198,2.0,2.0,91,0.00,,---,0.00,VWS V14.01,2013-02-03 11:29:00,
2013-02-03 05:34:00,8.1,6.0,30.00,SSW,198,1.0,1.0,91,0.00,,---,0.00,VWS V14.01,2013-02-03 11:34:00,
2013-02-03 05:39:00,8.2,6.1,30.01,SSW,202,0.0,1.0,91,0.00,,---,0.00,VWS V14.01,2013-02-03 11:39:00,
2013-02-03 05:44:00,8.3,6.2,30.01,WSW,242,3.0,3.0,91,0.00,,---,0.00,VWS V14.01,2013-02-03 11:44:00,
2013-02-03 05:49:00,8.4,6.3,30.01,WSW,242,2.0,2.0,91,0.00,,---,0.00,VWS V14.01,2013-02-03 11:49:00,
2013-02-03 05:54:00,8.4,6.3,30.01,WSW,242,0.0,1.0,91,0.00,,---,0.00,VWS V14.01,2013-02-03 11:54:00,
2013-02-03 05:59:00,8.5,6.4,30.01,WSW,242,1.0,2.0,91,0.00,,---,0.00,VWS V14.01,2013-02-03 11:59:00,
2013-02-03 06:04:00,8.5,6.4,30.01,WSW,242,0.0,2.0,91,0.00,,---,0.00,VWS V14.01,2013-02-03 12:04:00,
2013-02-03 06:09:00,8.5,6.4,30.00,WSW,242,1.0,1.0,91,0.00,,---,0.00,VWS V14.01,2013-02-03 12:09:00,
2013-02-03 06:14:00,8.5,6.4,30.01,WSW,242,0.0,0.0,91,0.00,,---,0.00,VWS V14.01,2013-02-03 12:14:00,
2013-02-03 06:19:00,8.6,6.5,30.01,WSW,242,1.0,1.0,91,0.00,,---,0.00,VWS V14.01,2013-02-03 12:19:00,
2013-02-03 06:24:00,8.6,6.5,30.01,WSW,242,0.0,1.0,91,0.00,,---,0.00,VWS V14.01,2013-02-03 12:24:00,
2013-02-03 06:29:00,8.7,6.6,30.01,WSW,242,2.0,2.0,91,0.00,,---,0.00,VWS V14.01,2013-02-03 12:29:00,
2013-02-03 06:35:00,8.7,6.6,30.02,WSW,242,1.0,1.0,91,0.00,,---,0.00,VWS V14.01,2013-02-03 12:35:00,
2013-02-03 06:40:00,8.8,6.7,30.02,WSW,242,0.0,0.0,91,0.00,,---,0.00,VWS V14.01,2013-02-03 12:40:00,
2013-02-03 06:45:00,8.8,6.7,30.02,WSW,242,0.0,2.0,91,0.00,,---,0.00,VWS V14.01,2013-02-03 12:45:00,
2013-02-03 06:50:00,8.9,6.8,30.02,WSW,242,0.0,0.0,91,0.00,,---,0.00,VWS V14.01,2013-02-03 12:50:00,
2013-02-03 06:55:00,8.9,6.8,30.02,WSW,242,0.0,0.0,91,0.00,,---,0.00,VWS V14.01,2013-02-03 12:55:00,
2013-02-03 07:00:00,9.0,6.9,30.02,WSW,242,0.0,0.0,91,0.00,,---,0.00,VWS V14.01,2013-02-03 13:00:00,
2013-02-03 07:05:00,9.2,7.1,30.03,WSW,242,0.0,0.0,91,0.00,,---,0.00,VWS V14.01,2013-02-03 13:05:00,
2013-02-03 07:10:00,9.2,7.1,30.03,WSW,242,0.0,3.0,91,0.00,,---,0.00,VWS V14.01,2013-02-03 13:10:00,
2013-02-03 07:15:00,9.4,7.3,30.03,WSW,242,0.0,1.0,91,0.00,,---,0.00,VWS V14.01,2013-02-03 13:15:00,
2013-02-03 07:20:00,9.5,7.4,30.03,WSW,242,2.0,4.0,91,0.00,,---,0.00,VWS V14.01,2013-02-03 13:20:00,
2013-02-03 07:25:00,9.7,7.6,30.03,WSW,242,0.0,1.0,91,0.00,,---,0.00,VWS V14.01,2013-02-03 13:25:00,
2013-02-03 07:30:00,9.9,7.8,30.04,WSW,242,0.0,1.0,91,0.00,,---,0.00,VWS V14.01,2013-02-03 13:30:00,
2013-02-03 07:35:00,10.1,8.0,30.03,WSW,242,0.0,0.0,91,0.00,,---,0.00,VWS V14.01,2013-02-03 13:35:00,
2013-02-03 07:40:00,10.2,8.3,30.03,WSW,243,0.0,1.0,92,0.00,,---,0.00,VWS V14.01,2013-02-03 13:40:00,
2013-02-03 07:45:00,10.8,8.9,30.03,WNW,285,4.0,4.0,92,0.00,,---,0.00,VWS V14.01,2013-02-03 13:45:00,
2013-02-03 07:50:00,11.3,9.4,30.04,WNW,296,2.0,4.0,92,0.00,,---,0.00,VWS V14.01,2013-02-03 13:50:00,
2013-02-03 07:55:00,11.6,9.5,30.04,WNW,300,2.0,4.0,91,0.00,,---,0.00,VWS V14.01,2013-02-03 13:55:00,
2013-02-03 08:00:00,11.8,9.7,30.03,NW,306,2.0,6.0,91,0.00,,---,0.00,VWS V14.01,2013-02-03 14:00:00,
2013-02-03 08:05:00,12.0,9.9,30.03,NW,316,0.0,3.0,91,0.00,,---,0.00,VWS V14.01,2013-02-03 14:05:00,
2013-02-03 08:10:00,12.1,10.0,30.04,WNW,290,2.0,4.0,91,0.00,,---,0.00,VWS V14.01,2013-02-03 14:10:00,
2013-02-03 08:15:00,12.2,9.8,30.04,WNW,303,7.0,7.0,90,0.00,,---,0.00,VWS V14.01,2013-02-03 14:15:00,
2013-02-03 08:20:00,12.3,9.9,30.04,WNW,283,4.0,5.0,90,0.00,,---,0.00,VWS V14.01,2013-02-03 14:20:00,
2013-02-03 08:25:00,12.3,9.7,30.04,NW,322,2.0,8.0,89,0.00,,---,0.00,VWS V14.01,2013-02-03 14:25:00,
2013-02-03 08:30:00,12.4,9.8,30.04,NNW,338,4.0,5.0,89,0.00,,---,0.00,VWS V14.01,2013-02-03 14:30:00,
2013-02-03 08:35:00,12.4,9.8,30.04,WNW,291,2.0,8.0,89,0.00,,---,0.00,VWS V14.01,2013-02-03 14:35:00,
2013-02-03 08:40:00,12.5,9.6,30.05,WNW,295,5.0,6.0,88,0.00,,---,0.00,VWS V14.01,2013-02-03 14:40:00,
2013-02-03 08:45:00,12.5,9.6,30.05,NW,313,3.0,4.0,88,0.00,,---,0.00,VWS V14.01,2013-02-03 14:45:00,
2013-02-03 08:50:00,12.6,9.7,30.05,WNW,289,2.0,4.0,88,0.00,,---,0.00,VWS V14.01,2013-02-03 14:50:00,
2013-02-03 08:55:00,12.8,9.9,30.05,WNW,292,5.0,8.0,88,0.00,,---,0.00,VWS V14.01,2013-02-03 14:55:00,
2013-02-03 09:00:00,12.9,9.8,30.05,NW,313,5.0,5.0,87,0.00,,---,0.00,VWS V14.01,2013-02-03 15:00:00,
2013-02-03 09:05:00,13.0,9.9,30.05,NW,309,1.0,7.0,87,0.00,,---,0.00,VWS V14.01,2013-02-03 15:05:00,
2013-02-03 09:10:00,13.1,9.7,30.04,NW,306,5.0,6.0,86,0.00,,---,0.00,VWS V14.01,2013-02-03 15:10:00,
2013-02-03 09:15:00,13.1,9.7,30.04,WNW,296,1.0,8.0,86,0.00,,---,0.00,VWS V14.01,2013-02-03 15:15:00,
2013-02-03 09:20:00,13.3,9.6,30.04,NW,309,7.0,7.0,85,0.00,,---,0.00,VWS V14.01,2013-02-03 15:20:00,
2013-02-03 09:25:00,13.5,9.8,30.04,North,10,4.0,10.0,85,0.00,,---,0.00,VWS V14.01,2013-02-03 15:25:00,
2013-02-03 09:30:00,13.6,9.7,30.05,WNW,300,7.0,9.0,84,0.00,,---,0.00,VWS V14.01,2013-02-03 15:30:00,
2013-02-03 09:35:00,13.6,9.7,30.05,NNW,327,2.0,4.0,84,0.00,,---,0.00,VWS V14.01,2013-02-03 15:35:00,
2013-02-03 09:40:00,13.7,9.8,30.06,NW,306,4.0,9.0,84,0.00,,---,0.00,VWS V14.01,2013-02-03 15:40:00,
2013-02-03 09:45:00,13.7,9.8,30.05,North,5,0.0,5.0,84,0.00,,---,0.00,VWS V14.01,2013-02-03 15:45:00,
2013-02-03 09:50:00,13.7,9.8,30.05,NW,322,3.0,8.0,84,0.00,,---,0.00,VWS V14.01,2013-02-03 15:50:00,
2013-02-03 09:55:00,13.7,9.5,30.05,WNW,303,3.0,7.0,83,0.00,,---,0.00,VWS V14.01,2013-02-03 15:55:00,
2013-02-03 10:00:00,13.7,9.5,30.05,West,275,10.0,11.0,83,0.00,,---,0.00,VWS V14.01,2013-02-03 16:00:00,
2013-02-03 10:05:00,13.6,9.1,30.05,NW,310,10.0,10.0,82,0.00,,---,0.00,VWS V14.01,2013-02-03 16:05:00,
2013-02-03 10:10:00,13.6,9.1,30.05,NNW,343,0.0,7.0,82,0.00,,---,0.00,VWS V14.01,2013-02-03 16:10:00,
2013-02-03 10:15:00,14.3,10.1,30.05,NNW,342,4.0,4.0,83,0.00,,---,0.00,VWS V14.01,2013-02-03 16:15:00,
2013-02-03 10:20:00,14.3,9.6,30.06,WNW,302,5.0,16.0,81,0.00,,---,0.00,VWS V14.01,2013-02-03 16:20:00,
2013-02-03 10:25:00,14.3,9.6,30.06,North,349,5.0,6.0,81,0.00,,---,0.00,VWS V14.01,2013-02-03 16:25:00,
2013-02-03 10:30:00,14.6,9.8,30.07,NW,324,6.0,9.0,81,0.00,,---,0.00,VWS V14.01,2013-02-03 16:30:00,
2013-02-03 10:35:00,15.0,10.2,30.07,WNW,287,7.0,9.0,81,0.00,,---,0.00,VWS V14.01,2013-02-03 16:35:00,
2013-02-03 10:40:00,15.1,10.1,30.07,NW,315,14.0,16.0,80,0.00,,---,0.00,VWS V14.01,2013-02-03 16:40:00,
2013-02-03 10:45:00,15.0,10.0,30.07,NW,304,2.0,8.0,80,0.00,,---,0.00,VWS V14.01,2013-02-03 16:45:00,
2013-02-03 10:50:00,15.1,9.8,30.07,NNE,13,8.0,12.0,79,0.00,,---,0.00,VWS V14.01,2013-02-03 16:50:00,
2013-02-03 10:55:00,15.1,9.8,30.08,WNW,294,4.0,15.0,79,0.00,,---,0.00,VWS V14.01,2013-02-03 16:55:00,
2013-02-03 11:00:00,15.4,10.1,30.08,West,278,7.0,9.0,79,0.00,,---,0.00,VWS V14.01,2013-02-03 17:00:00,
2013-02-03 11:05:00,15.4,10.1,30.08,West,279,10.0,10.0,79,0.00,,---,0.00,VWS V14.01,2013-02-03 17:05:00,
2013-02-03 11:10:00,15.5,10.2,30.08,WNW,292,6.0,13.0,79,0.00,,---,0.00,VWS V14.01,2013-02-03 17:10:00,
2013-02-03 11:15:00,15.1,9.5,30.08,NW,315,4.0,11.0,78,0.00,,---,0.00,VWS V14.01,2013-02-03 17:15:00,
2013-02-03 11:20:00,15.2,9.6,30.07,West,265,5.0,6.0,78,0.00,,---,0.00,VWS V14.01,2013-02-03 17:20:00,
2013-02-03 11:25:00,15.4,9.8,30.07,WNW,286,6.0,6.0,78,0.00,,---,0.00,VWS V14.01,2013-02-03 17:25:00,
2013-02-03 11:30:00,15.5,9.6,30.07,WNW,298,9.0,9.0,77,0.00,,---,0.00,VWS V14.01,2013-02-03 17:30:00,
2013-02-03 11:35:00,15.9,10.0,30.07,WNW,295,2.0,7.0,77,0.00,,---,0.00,VWS V14.01,2013-02-03 17:35:00,
2013-02-03 11:40:00,15.7,9.5,30.07,West,272,6.0,12.0,76,0.00,,---,0.00,VWS V14.01,2013-02-03 17:40:00,
2013-02-03 11:45:00,15.7,9.5,30.07,WNW,296,5.0,13.0,76,0.00,,---,0.00,VWS V14.01,2013-02-03 17:45:00,
2013-02-03 11:50:00,15.8,9.3,30.07,NW,309,6.0,15.0,75,0.00,,---,0.00,VWS V14.01,2013-02-03 17:50:00,
2013-02-03 11:55:00,15.9,9.4,30.07,WNW,286,3.0,8.0,75,0.00,,---,0.00,VWS V14.01,2013-02-03 17:55:00,
2013-02-03 12:00:00,16.3,9.8,30.07,West,279,3.0,7.0,75,0.00,,---,0.00,VWS V14.01,2013-02-03 18:00:00,
2013-02-03 12:05:00,16.5,10.0,30.07,WNW,292,7.0,11.0,75,0.00,,---,0.00,VWS V14.01,2013-02-03 18:05:00,
2013-02-03 12:10:00,16.7,10.2,30.07,NNW,333,9.0,15.0,75,0.00,,---,0.00,VWS V14.01,2013-02-03 18:10:00,
2013-02-03 12:16:00,16.8,10.3,30.06,NW,305,9.0,9.0,75,0.00,,---,0.00,VWS V14.01,2013-02-03 18:16:00,
2013-02-03 12:21:00,16.8,10.3,30.06,West,259,4.0,5.0,75,0.00,,---,0.00,VWS V14.01,2013-02-03 18:21:00,
2013-02-03 12:26:00,17.4,11.1,30.06,WSW,252,7.0,7.0,76,0.00,,---,0.00,VWS V14.01,2013-02-03 18:26:00,
2013-02-03 12:31:00,17.5,11.2,30.05,NNW,340,6.0,7.0,76,0.00,,---,0.00,VWS V14.01,2013-02-03 18:31:00,
2013-02-03 12:36:00,17.4,11.1,30.05,WNW,286,3.0,3.0,76,0.00,,---,0.00,VWS V14.01,2013-02-03 18:36:00,
2013-02-03 12:41:00,17.7,11.4,30.06,WNW,298,2.0,5.0,76,0.00,,---,0.00,VWS V14.01,2013-02-03 18:41:00,
2013-02-03 12:46:00,17.8,10.9,30.05,WSW,240,4.0,7.0,74,0.00,,---,0.00,VWS V14.01,2013-02-03 18:46:00,
2013-02-03 12:51:00,17.8,10.9,30.06,NW,307,5.0,10.0,74,0.00,,---,0.00,VWS V14.01,2013-02-03 18:51:00,
2013-02-03 12:56:00,17.9,11.0,30.06,SW,227,7.0,11.0,74,0.00,,---,0.00,VWS V14.01,2013-02-03 18:56:00,
2013-02-03 13:01:00,17.6,10.7,30.06,West,267,7.0,8.0,74,0.00,,---,0.00,VWS V14.01,2013-02-03 19:01:00,
2013-02-03 13:06:00,17.4,10.6,30.06,West,261,7.0,14.0,74,0.00,,---,0.00,VWS V14.01,2013-02-03 19:06:00,
2013-02-03 13:11:00,16.9,10.1,30.06,WNW,290,8.0,12.0,74,0.00,,---,0.00,VWS V14.01,2013-02-03 19:11:00,
2013-02-03 13:16:00,16.8,10.0,30.06,West,277,9.0,10.0,74,0.00,,---,0.00,VWS V14.01,2013-02-03 19:16:00,
2013-02-03 13:21:00,16.9,10.1,30.06,West,265,9.0,9.0,74,0.00,,---,0.00,VWS V14.01,2013-02-03 19:21:00,
2013-02-03 13:26:00,17.0,9.9,30.06,NW,304,8.0,11.0,73,0.00,,---,0.00,VWS V14.01,2013-02-03 19:26:00,
2013-02-03 13:31:00,17.2,10.1,30.06,West,274,7.0,13.0,73,0.00,,---,0.00,VWS V14.01,2013-02-03 19:31:00,
2013-02-03 13:36:00,17.2,10.1,30.05,West,265,9.0,12.0,73,0.00,,---,0.00,VWS V14.01,2013-02-03 19:36:00,
2013-02-03 13:41:00,17.2,10.4,30.05,WNW,284,5.0,10.0,74,0.00,,---,0.00,VWS V14.01,2013-02-03 19:41:00,
2013-02-03 13:46:00,17.5,10.3,30.06,WSW,247,10.0,10.0,73,0.00,,---,0.00,VWS V14.01,2013-02-03 19:46:00,
2013-02-03 13:51:00,17.5,10.3,30.06,WSW,255,11.0,11.0,73,0.00,,---,0.00,VWS V14.01,2013-02-03 19:51:00,
2013-02-03 13:56:00,17.5,10.0,30.06,SW,225,4.0,9.0,72,0.00,,---,0.00,VWS V14.01,2013-02-03 19:56:00,
2013-02-03 14:01:00,17.7,10.5,30.06,WNW,303,4.0,7.0,73,0.00,,---,0.00,VWS V14.01,2013-02-03 20:01:00,
2013-02-03 14:06:00,17.4,9.9,30.05,West,279,9.0,9.0,72,0.00,,---,0.00,VWS V14.01,2013-02-03 20:06:00,
2013-02-03 14:11:00,16.8,9.4,30.05,WNW,301,5.0,10.0,72,0.00,,---,0.00,VWS V14.01,2013-02-03 20:11:00,
2013-02-03 14:16:00,16.7,9.6,30.05,WSW,245,7.0,11.0,73,0.00,,---,0.00,VWS V14.01,2013-02-03 20:16:00,
2013-02-03 14:21:00,16.6,9.8,30.06,NW,305,9.0,13.0,74,0.00,,---,0.00,VWS V14.01,2013-02-03 20:21:00,
2013-02-03 14:26:00,16.8,10.0,30.06,WSW,249,7.0,10.0,74,0.00,,---,0.00,VWS V14.01,2013-02-03 20:26:00,
2013-02-03 14:31:00,17.0,10.2,30.06,West,267,4.0,8.0,74,0.00,,---,0.00,VWS V14.01,2013-02-03 20:31:00,
2013-02-03 14:36:00,17.0,10.2,30.06,WNW,292,5.0,8.0,74,0.00,,---,0.00,VWS V14.01,2013-02-03 20:36:00,
2013-02-03 14:41:00,16.9,10.1,30.06,WNW,296,3.0,8.0,74,0.00,,---,0.00,VWS V14.01,2013-02-03 20:41:00,
2013-02-03 14:46:00,17.0,10.2,30.06,West,279,3.0,9.0,74,0.00,,---,0.00,VWS V14.01,2013-02-03 20:46:00,
2013-02-03 14:51:00,17.0,9.9,30.06,WSW,252,9.0,13.0,73,0.00,,---,0.00,VWS V14.01,2013-02-03 20:51:00,
2013-02-03 14:56:00,17.0,10.2,30.06,West,265,4.0,8.0,74,0.00,,---,0.00,VWS V14.01,2013-02-03 20:56:00,
2013-02-03 15:01:00,17.4,10.6,30.06,NW,315,2.0,5.0,74,0.00,,---,0.00,VWS V14.01,2013-02-03 21:01:00,
2013-02-03 15:06:00,17.6,10.4,30.05,West,269,3.0,12.0,73,0.00,,---,0.00,VWS V14.01,2013-02-03 21:06:00,
2013-02-03 15:11:00,17.9,10.7,30.05,West,277,4.0,11.0,73,0.00,,---,0.00,VWS V14.01,2013-02-03 21:11:00,
2013-02-03 15:16:00,17.6,10.1,30.06,WNW,282,3.0,7.0,72,0.00,,---,0.00,VWS V14.01,2013-02-03 21:16:00,
2013-02-03 15:21:00,17.5,10.0,30.05,WNW,302,3.0,12.0,72,0.00,,---,0.00,VWS V14.01,2013-02-03 21:21:00,
2013-02-03 15:26:00,17.4,10.2,30.06,West,275,4.0,9.0,73,0.00,,---,0.00,VWS V14.01,2013-02-03 21:26:00,
2013-02-03 15:31:00,17.5,10.3,30.06,WNW,291,7.0,11.0,73,0.00,,---,0.00,VWS V14.01,2013-02-03 21:31:00,
2013-02-03 15:36:00,17.3,10.1,30.06,WNW,303,6.0,11.0,73,0.00,,---,0.00,VWS V14.01,2013-02-03 21:36:00,
2013-02-03 15:41:00,17.0,9.9,30.06,West,262,7.0,10.0,73,0.00,,---,0.00,VWS V14.01,2013-02-03 21:41:00,
2013-02-03 15:46:00,17.0,10.2,30.06,West,259,2.0,8.0,74,0.00,,---,0.00,VWS V14.01,2013-02-03 21:46:00,
2013-02-03 15:51:00,17.2,10.6,30.05,WSW,242,6.0,8.0,75,0.00,,---,0.00,VWS V14.01,2013-02-03 21:51:00,
2013-02-03 15:56:00,17.2,10.6,30.05,WNW,286,2.0,10.0,75,0.00,,---,0.00,VWS V14.01,2013-02-03 21:56:00,
2013-02-03 16:01:00,16.6,9.8,30.05,West,281,4.0,11.0,74,0.00,,---,0.00,VWS V14.01,2013-02-03 22:01:00,
2013-02-03 16:06:00,16.3,9.8,30.05,WNW,284,6.0,9.0,75,0.00,,---,0.00,VWS V14.01,2013-02-03 22:06:00,
2013-02-03 16:11:00,16.1,9.6,30.05,West,280,7.0,8.0,75,0.00,,---,0.00,VWS V14.01,2013-02-03 22:11:00,
2013-02-03 16:16:00,16.2,9.7,30.05,SW,225,2.0,11.0,75,0.00,,---,0.00,VWS V14.01,2013-02-03 22:16:00,
2013-02-03 16:21:00,16.4,9.9,30.05,West,274,2.0,6.0,75,0.00,,---,0.00,VWS V14.01,2013-02-03 22:21:00,
2013-02-03 16:26:00,16.5,10.0,30.05,WNW,290,0.0,5.0,75,0.00,,---,0.00,VWS V14.01,2013-02-03 22:26:00,
2013-02-03 16:31:00,16.4,9.9,30.05,West,273,1.0,6.0,75,0.00,,---,0.00,VWS V14.01,2013-02-03 22:31:00,
2013-02-03 16:36:00,16.1,9.6,30.05,West,263,1.0,4.0,75,0.00,,---,0.00,VWS V14.01,2013-02-03 22:36:00,
2013-02-03 16:41:00,15.7,9.2,30.05,West,263,0.0,7.0,75,0.00,,---,0.00,VWS V14.01,2013-02-03 22:41:00,
2013-02-03 16:46:00,15.4,8.9,30.04,WSW,250,3.0,4.0,75,0.00,,---,0.00,VWS V14.01,2013-02-03 22:46:00,
2013-02-03 16:51:00,15.1,8.9,30.04,WSW,242,3.0,5.0,76,0.00,,---,0.00,VWS V14.01,2013-02-03 22:51:00,
2013-02-03 16:56:00,14.8,8.6,30.04,WSW,244,3.0,5.0,76,0.00,,---,0.00,VWS V14.01,2013-02-03 22:56:00,
2013-02-03 17:01:00,14.6,8.4,30.05,WSW,249,1.0,4.0,76,0.00,,---,0.00,VWS V14.01,2013-02-03 23:01:00,
2013-02-03 17:06:00,14.4,8.2,30.05,West,275,0.0,4.0,76,0.00,,---,0.00,VWS V14.01,2013-02-03 23:06:00,
2013-02-03 17:11:00,14.2,8.0,30.04,SW,227,2.0,3.0,76,0.00,,---,0.00,VWS V14.01,2013-02-03 23:11:00,
2013-02-03 17:16:00,13.9,8.0,30.04,SW,233,0.0,3.0,77,0.00,,---,0.00,VWS V14.01,2013-02-03 23:16:00,
2013-02-03 17:21:00,13.7,7.8,30.04,WSW,242,0.0,3.0,77,0.00,,---,0.00,VWS V14.01,2013-02-03 23:21:00,
2013-02-03 17:26:00,13.6,7.7,30.05,WSW,242,0.0,2.0,77,0.00,,---,0.00,VWS V14.01,2013-02-03 23:26:00,
2013-02-03 17:31:00,13.3,7.4,30.05,WSW,242,1.0,2.0,77,0.00,,---,0.00,VWS V14.01,2013-02-03 23:31:00,
2013-02-03 17:36:00,13.1,7.5,30.05,WSW,242,2.0,2.0,78,0.00,,---,0.00,VWS V14.01,2013-02-03 23:36:00,
2013-02-03 17:41:00,13.0,7.4,30.05,SW,236,0.0,2.0,78,0.00,,---,0.00,VWS V14.01,2013-02-03 23:41:00,
2013-02-03 17:46:00,13.0,7.7,30.05,WSW,239,1.0,2.0,79,0.00,,---,0.00,VWS V14.01,2013-02-03 23:46:00,
2013-02-03 17:51:00,13.0,7.7,30.05,WSW,239,1.0,2.0,79,0.00,,---,0.00,VWS V14.01,2013-02-03 23:51:00,
2013-02-03 17:56:00,13.1,7.8,30.05,WSW,240,0.0,2.0,79,0.00,,---,0.00,VWS V14.01,2013-02-03 23:56:00,
2013-02-03 18:02:00,13.2,8.2,30.06,WSW,251,0.0,3.0,80,0.00,,---,0.00,VWS V14.01,2013-02-04 00:02:00,
2013-02-03 18:07:00,13.4,8.4,30.06,WSW,243,0.0,3.0,80,0.00,,---,0.00,VWS V14.01,2013-02-04 00:07:00,
2013-02-03 18:12:00,13.6,8.6,30.06,West,267,0.0,2.0,80,0.00,,---,0.00,VWS V14.01,2013-02-04 00:12:00,
2013-02-03 18:17:00,13.8,8.8,30.06,West,265,1.0,3.0,80,0.00,,---,0.00,VWS V14.01,2013-02-04 00:17:00,
2013-02-03 18:22:00,14.0,9.0,30.06,West,260,5.0,5.0,80,0.00,,---,0.00,VWS V14.01,2013-02-04 00:22:00,
2013-02-03 18:27:00,14.3,9.3,30.06,WSW,244,1.0,4.0,80,0.00,,---,0.00,VWS V14.01,2013-02-04 00:27:00,
2013-02-03 18:32:00,14.4,9.4,30.06,WSW,250,2.0,4.0,80,0.00,,---,0.00,VWS V14.01,2013-02-04 00:32:00,
2013-02-03 18:37:00,14.6,9.6,30.06,West,269,0.0,4.0,80,0.00,,---,0.00,VWS V14.01,2013-02-04 00:37:00,
2013-02-03 18:42:00,14.7,9.4,30.06,West,278,2.0,3.0,79,0.00,,---,0.00,VWS V14.01,2013-02-04 00:42:00,
2013-02-03 18:47:00,14.8,9.5,30.06,West,269,0.0,4.0,79,0.00,,---,0.00,VWS V14.01,2013-02-04 00:47:00,
2013-02-03 18:52:00,14.9,9.6,30.06,West,264,0.0,3.0,79,0.00,,---,0.00,VWS V14.01,2013-02-04 00:52:00,
2013-02-03 18:57:00,14.8,9.5,30.06,West,267,2.0,3.0,79,0.00,,---,0.00,VWS V14.01,2013-02-04 00:57:00,
2013-02-03 19:02:00,14.8,9.5,30.06,West,271,1.0,5.0,79,0.00,,---,0.00,VWS V14.01,2013-02-04 01:02:00,
2013-02-03 19:07:00,14.8,9.5,30.06,West,271,1.0,2.0,79,0.00,,---,0.00,VWS V14.01,2013-02-04 01:07:00,
2013-02-03 19:12:00,14.7,9.4,30.06,West,271,0.0,3.0,79,0.00,,---,0.00,VWS V14.01,2013-02-04 01:12:00,
2013-02-03 19:17:00,14.7,9.4,30.06,West,271,1.0,1.0,79,0.00,,---,0.00,VWS V14.01,2013-02-04 01:17:00,
2013-02-03 19:22:00,14.7,9.4,30.06,West,271,0.0,1.0,79,0.00,,---,0.00,VWS V14.01,2013-02-04 01:22:00,
2013-02-03 19:27:00,14.6,9.3,30.06,West,271,0.0,1.0,79,0.00,,---,0.00,VWS V14.01,2013-02-04 01:27:00,
2013-02-03 19:32:00,14.6,9.6,30.06,West,271,0.0,2.0,80,0.00,,---,0.00,VWS V14.01,2013-02-04 01:32:00,
2013-02-03 19:37:00,14.6,9.6,30.06,West,271,1.0,2.0,80,0.00,,---,0.00,VWS V14.01,2013-02-04 01:37:00,
2013-02-03 19:42:00,14.6,9.6,30.06,West,273,2.0,4.0,80,0.00,,---,0.00,VWS V14.01,2013-02-04 01:42:00,
2013-02-03 19:47:00,14.6,9.6,30.06,West,265,1.0,4.0,80,0.00,,---,0.00,VWS V14.01,2013-02-04 01:47:00,
2013-02-03 19:52:00,14.5,9.5,30.06,West,269,2.0,3.0,80,0.00,,---,0.00,VWS V14.01,2013-02-04 01:52:00,
2013-02-03 19:57:00,14.5,9.5,30.06,West,269,0.0,0.0,80,0.00,,---,0.00,VWS V14.01,2013-02-04 01:57:00,
2013-02-03 20:02:00,14.5,9.7,30.06,West,269,1.0,2.0,81,0.00,,---,0.00,VWS V14.01,2013-02-04 02:02:00,
2013-02-03 20:07:00,14.5,9.7,30.06,West,266,0.0,3.0,81,0.00,,---,0.00,VWS V14.01,2013-02-04 02:07:00,
2013-02-03 20:12:00,14.5,9.7,30.06,West,266,0.0,2.0,81,0.00,,---,0.00,VWS V14.01,2013-02-04 02:12:00,
2013-02-03 20:17:00,14.5,9.7,30.06,West,266,0.0,2.0,81,0.00,,---,0.00,VWS V14.01,2013-02-04 02:17:00,
2013-02-03 20:22:00,14.5,10.0,30.06,WSW,252,0.0,2.0,82,0.00,,---,0.00,VWS V14.01,2013-02-04 02:22:00,
2013-02-03 20:27:00,14.6,10.1,30.06,WSW,252,1.0,1.0,82,0.00,,---,0.00,VWS V14.01,2013-02-04 02:27:00,
2013-02-03 20:32:00,14.7,10.2,30.06,WSW,258,1.0,3.0,82,0.00,,---,0.00,VWS V14.01,2013-02-04 02:32:00,
2013-02-03 20:37:00,14.8,10.3,30.07,WSW,258,0.0,2.0,82,0.00,,---,0.00,VWS V14.01,2013-02-04 02:37:00,
2013-02-03 20:42:00,14.9,10.4,30.07,WSW,258,0.0,2.0,82,0.00,,---,0.00,VWS V14.01,2013-02-04 02:42:00,
2013-02-03 20:47:00,15.0,10.5,30.07,WSW,258,2.0,2.0,82,0.00,,---,0.00,VWS V14.01,2013-02-04 02:47:00,
2013-02-03 20:52:00,15.0,10.5,30.07,WSW,258,0.0,3.0,82,0.00,,---,0.00,VWS V14.01,2013-02-04 02:52:00,
2013-02-03 20:57:00,15.1,10.6,30.08,West,261,2.0,3.0,82,0.00,,---,0.00,VWS V14.01,2013-02-04 02:57:00,
2013-02-03 21:02:00,15.2,10.7,30.08,West,269,3.0,4.0,82,0.00,,---,0.00,VWS V14.01,2013-02-04 03:02:00,
2013-02-03 21:07:00,15.3,11.1,30.08,West,269,1.0,2.0,83,0.00,,---,0.00,VWS V14.01,2013-02-04 03:07:00,
2013-02-03 21:12:00,15.3,11.1,30.08,WSW,258,1.0,2.0,83,0.00,,---,0.00,VWS V14.01,2013-02-04 03:12:00,
2013-02-03 21:17:00,15.3,11.3,30.08,WSW,258,1.0,3.0,84,0.00,,---,0.00,VWS V14.01,2013-02-04 03:17:00,
2013-02-03 21:22:00,15.3,11.6,30.08,WSW,253,0.0,3.0,85,0.00,,---,0.00,VWS V14.01,2013-02-04 03:22:00,
2013-02-03 21:27:00,15.3,11.6,30.08,WSW,252,3.0,4.0,85,0.00,,---,0.00,VWS V14.01,2013-02-04 03:27:00,
2013-02-03 21:32:00,15.2,11.8,30.08,WSW,252,2.0,3.0,86,0.00,,---,0.00,VWS V14.01,2013-02-04 03:32:00,
2013-02-03 21:37:00,15.2,11.8,30.07,WSW,252,0.0,2.0,86,0.00,,---,0.00,VWS V14.01,2013-02-04 03:37:00,
2013-02-03 21:42:00,15.3,11.9,30.07,WSW,252,0.0,1.0,86,0.00,,---,0.00,VWS V14.01,2013-02-04 03:42:00,
2013-02-03 21:47:00,15.3,12.1,30.07,WSW,252,1.0,1.0,87,0.00,,---,0.00,VWS V14.01,2013-02-04 03:47:00,
2013-02-03 21:52:00,15.3,12.1,30.07,WSW,252,2.0,2.0,87,0.00,,---,0.00,VWS V14.01,2013-02-04 03:52:00,
2013-02-03 21:57:00,15.3,12.1,30.07,WSW,252,2.0,2.0,87,0.00,,---,0.00,VWS V14.01,2013-02-04 03:57:00,
2013-02-03 22:02:00,15.3,12.4,30.07,WSW,251,0.0,2.0,88,0.00,,---,0.00,VWS V14.01,2013-02-04 04:02:00,
2013-02-03 22:07:00,15.3,12.4,30.07,WSW,243,2.0,3.0,88,0.00,,---,0.00,VWS V14.01,2013-02-04 04:07:00,
2013-02-03 22:12:00,15.2,12.3,30.07,SW,231,3.0,3.0,88,0.00,,---,0.00,VWS V14.01,2013-02-04 04:12:00,
2013-02-03 22:17:00,15.2,12.6,30.07,SW,233,0.0,2.0,89,0.00,,---,0.00,VWS V14.01,2013-02-04 04:17:00,
2013-02-03 22:22:00,15.2,12.6,30.07,SW,232,1.0,3.0,89,0.00,,---,0.00,VWS V14.01,2013-02-04 04:22:00,
2013-02-03 22:27:00,15.2,12.8,30.07,SW,234,1.0,3.0,90,0.00,,---,0.00,VWS V14.01,2013-02-04 04:27:00,
2013-02-03 22:32:00,15.2,12.8,30.07,SW,234,0.0,3.0,90,0.00,,---,0.00,VWS V14.01,2013-02-04 04:32:00,
2013-02-03 22:37:00,15.2,12.8,30.07,SW,225,0.0,2.0,90,0.00,,---,0.00,VWS V14.01,2013-02-04 04:37:00,
2013-02-03 22:42:00,15.2,12.8,30.07,SW,225,0.0,2.0,90,0.00,,---,0.00,VWS V14.01,2013-02-04 04:42:00,
2013-02-03 22:47:00,15.2,13.1,30.06,SW,223,1.0,2.0,91,0.00,,---,0.00,VWS V14.01,2013-02-04 04:47:00,
2013-02-03 22:52:00,15.2,12.8,30.06,SW,223,0.0,2.0,90,0.00,,---,0.00,VWS V14.01,2013-02-04 04:52:00,
2013-02-03 22:57:00,15.2,13.1,30.06,SW,223,0.0,0.0,91,0.00,,---,0.00,VWS V14.01,2013-02-04 04:57:00,
2013-02-03 23:02:00,15.2,13.1,30.06,SW,223,0.0,1.0,91,0.00,,---,0.00,VWS V14.01,2013-02-04 05:02:00,
2013-02-03 23:04:00,15.2,13.1,30.06,SW,223,0.0,1.0,91,0.00,,---,0.00,VWS V14.01,2013-02-04 05:04:00,
2013-02-03 23:12:00,15.2,13.1,30.05,SW,223,0.0,0.0,91,0.00,,---,0.00,VWS V14.01,2013-02-04 05:12:00,
2013-02-03 23:17:00,15.2,13.1,30.05,SW,223,0.0,0.0,91,0.00,,---,0.00,VWS V14.01,2013-02-04 05:17:00,
2013-02-03 23:22:00,15.3,13.1,30.05,SW,223,0.0,1.0,91,0.00,,---,0.00,VWS V14.01,2013-02-04 05:22:00,
2013-02-03 23:27:00,15.3,13.1,30.05,SW,223,0.0,0.0,91,0.00,,---,0.00,VWS V14.01,2013-02-04 05:27:00,
2013-02-03 23:33:00,15.3,13.1,30.04,SW,223,0.0,1.0,91,0.00,,---,0.00,VWS V14.01,2013-02-04 05:33:00,
2013-02-03 23:38:00,15.3,13.1,30.04,SW,223,0.0,1.0,91,0.00,,---,0.00,VWS V14.01,2013-02-04 05:38:00,
2013-02-03 23:43:00,15.4,13.2,30.04,SW,223,0.0,0.0,91,0.00,,---,0.00,VWS V14.01,2013-02-04 05:43:00,
2013-02-03 23:48:00,15.4,13.2,30.04,SW,223,0.0,0.0,91,0.00,,---,0.00,VWS V14.01,2013-02-04 05:48:00,
2013-02-03 23:53:00,15.4,13.2,30.03,SW,223,0.0,0.0,91,0.00,,---,0.00,VWS V14.01,2013-02-04 05:53:00,
2013-02-03 23:58:00,15.4,13.2,30.03,SW,223,0.0,0.0,91,0.00,,---,0.00,VWS V14.01,2013-02-04 05:58:00,